Location: Chippewa Lake
(41.0698°N, 81.9010°W)
Time: 01:12:57
(UTC+00:00)

Cosmos 1544 Rocket - Pass Details

Date: 09 May 2021
Orbit: 605 x 629 km, 82.5° (Epoch: 24 June)

Event Time Altitude Azimuth Distance (km) Brightness Sun altitude
Rises 08:10:49 0° 352° (N) 2,889 7.6 -19.9°
Reaches altitude 10° 08:13:03 10° 353° (N) 1,983 6.7 -19.6°
Maximum altitude 08:17:27 87° 82° (E) 625 3.5 -19.0°
Enters shadow 08:20:00 25° 171° (S) 1,260 4.8 -18.7°
